Find Starlink 11632

NORAD ID: 63108 Int'l Des: 2025-039 Owner: SPXS Country: US Constellation: starlink operational
LEOCIRCULAR

Live-Position

3D-Globus wird geladen...

Über Starlink 11632

Beschreibung wird geladen...

Nächste Überflüge

Passes for default location (London). Set your location on the main map for personalized predictions.

Höhenverlauf

Loading altitude history...

Zweizeiliger Elementsatz

1 63108U 25039E 26124.38696627 .00292699 00000-0 21885-2 0 9992
2 63108 42.9980 261.2582 0001725 178.3535 181.7339 15.71021386 68375
Epoch: 4. Mai 2026 • Age: 24 hours

Aktueller Status

Höhe 359.6 km
Geschwindigkeit 7.69 km/s
Subsatellitenpunkt -25.07°S, 105.53°E
Startdatum 27. Feb. 2025
Alter 1.1 years
Typ internet

Technische Details

Klassifizierung Payload
Masse 960.00 kg
Trockenmasse 910.00 kg
Gesamtmasse 960.00 kg
Länge 0.30 m
Durchmesser 4.10 m
Spannweite 29.00 m
Form Box + pan
Hersteller SPXS
Bus-Typ Starlink V2MD
Phasenstatus In Orbit
Besitzer/Staat SPXS/US

Most Searched